Hourly Data Report for July 11, 2021

HALIFAX STANFIELD INT'L A
NOVA SCOTIA
Current Station Operator: NAVCAN

44°52'52.000" N
63°30'31.000" W
145.40 m
8202251
71395
YHZ

Download Data

Hourly Data (July 2021)
Hourly Data Report for July 11, 2021
TIME
LST
Temp Definition
°C
Dew Point Definition
°C
Rel Hum Definition
%
Precip. Amount Definition
mm

Wind Dir Definition
10's deg

Wind Spd Definition
km/h
Visibility Definition
km
Stn Press Definition
kPa
Hmdx Definition


Wind Chill Definition


Weather Definition


00:00 17.5 15.1 86   35 8 24.1 99.90     LegendNANA
01:00 17.4 15.2 87   36 6 24.1 99.88     LegendNANA
02:00 16.9 15.1 89   5 4 24.1 99.85     Cloudy
03:00 16.7 15.4 92   34 9 24.1 99.89     LegendNANA
04:00 16.5 15.9 96   35 7 24.1 99.93     LegendNANA
05:00 16.0 15.6 97   36 12 16.1 99.97     Cloudy
06:00 15.5 15.3 99   34 10 1.6 100.04     Fog
07:00 15.8 15.7 99   35 14 1.6 100.06     Fog
08:00 16.6 16.1 97   1 17 2.0 100.08     Fog
09:00 16.9 16.6 98   1 9 1.2 100.11     Fog
10:00 18.6 17.2 92   4 13 16.1 100.08     LegendNANA
11:00 19.5 17.2 87   4 6 24.1 100.07     Cloudy
12:00 23.0 16.9 68   36 3 24.1 100.08 28   LegendNANA
13:00 23.6 16.2 63   33 6 24.1 100.09 28   LegendNANA
14:00 25.3 16.8 59   3 7 24.1 100.02 30   Mostly Cloudy
15:00 26.2 16.4 54   32 5 24.1 100.02 31   LegendNANA
16:00 26.1 13.2 44   33 13 24.1 100.00 29   LegendNANA
17:00 23.3 18.4 74   18 16 24.1 100.01 30   Mostly Cloudy
18:00 21.9 18.0 78   17 15 24.1 100.04 28   LegendNANA
19:00 21.3 17.4 78   22 15 24.1 100.06 27   LegendNANA
20:00 19.2 16.8 86   25 13 24.1 100.11     Mostly Cloudy
21:00 18.1 15.9 87   22 14 24.1 100.18     LegendNANA
22:00 17.5 16.0 91   23 10 24.1 100.15     LegendNANA
23:00 18.0 16.2 89   27 10 24.1 100.10     Cloudy

Notes on Data Quality.

Legend

  • E = Estimated
  • M = Missing
  • NA = Not Available*
  • [empty] = Indicates an unobserved value
Date modified: